Flag for U.S.A. Weather past 2 weeks in San Jose, California, U.S.A.

Now
62 °F

Clear.


Feels Like: 62 °F
Forecast: 59 / 77 °F
Wind: No wind

Location: San Jose International Airport

Current Time: Sep 17, 2014 at 3:13:26 AM

Latest Report: Sep 17, 2014 at 1:53 AM


Visibility: 10 mi

Pressure: 29.81 "Hg

Humidity: 90%

Dew point: 59 °F

Location of San JoseLocation

Historic Weather in San Jose — Graph

°F

San Jose temperature yesterday

Maximum temperature yesterday: 80 °F (at 2:53 PM)
Minimum temperature yesterday: 57 °F (at 5:53 AM)
Average temperature yesterday: 67 °F

Past Weeks' High & Low Weather Summary

 TemperatureHumidityPressure
High88 °F (Sep 10, 3:53 PM)97% (Sep 10, 5:53 AM)30.00 "Hg (Sep 10, 5:53 AM)
Low55 °F (Sep 9, 2:53 AM)22% (Sep 11, 2:53 PM)29.68 "Hg (Sep 3, 4:53 PM)
Average66 °F71%29.85 "Hg
* Reported Sep 2 1:53 AM — Sep 17 1:53 AM, San Jose, Weather by CustomWeather, © 2014

Note: Actual official high and low records may vary slightly from our data, if they occured in-between our weather recording intervals... More about our weather records

Advertising

San Jose weather history for previous 24 hours

 ConditionsComfort  
Time TempWeatherWind HumidityBarometerVisibility
1:53 AM
Sep 17
62 °FClear.No wind90%29.81 "Hg10 mi
12:53 AM62 °FClear.3 mph90%29.82 "Hg10 mi
11:53 PM
Sep 16
63 °FClear.5 mph87%29.83 "Hg10 mi
10:53 PM64 °FPassing clouds.8 mph84%29.83 "Hg10 mi
9:53 PM65 °FPassing clouds.6 mph81%29.83 "Hg10 mi
8:53 PM67 °FClear.8 mph73%29.83 "Hg10 mi
7:53 PM68 °FScattered clouds.9 mph68%29.81 "Hg10 mi
6:53 PM72 °FScattered clouds.12 mph55%29.80 "Hg10 mi
5:53 PM74 °FScattered clouds.12 mph53%29.80 "Hg10 mi
4:53 PM76 °FPassing clouds.12 mph52%29.80 "Hg10 mi
3:53 PM80 °FPassing clouds.10 mph34%29.81 "Hg10 mi
2:53 PM80 °FPassing clouds.14 mph26%29.83 "Hg10 mi
1:53 PM78 °FPassing clouds.8 mph30%29.84 "Hg10 mi
12:53 PM76 °FPassing clouds.5 mph40%29.87 "Hg10 mi
11:53 AM74 °FPassing clouds.7 mph45%29.90 "Hg10 mi
10:53 AM71 °FPassing clouds.No wind53%29.91 "Hg10 mi
9:53 AM67 °FSunny.3 mph66%29.92 "Hg10 mi
8:53 AM63 °FSunny.No wind75%29.92 "Hg10 mi
7:53 AM58 °FPassing clouds.No wind81%29.93 "Hg10 mi
6:53 AM57 °FPassing clouds.No wind81%29.92 "Hg10 mi
5:53 AM57 °FPassing clouds.No wind81%29.92 "Hg10 mi
4:53 AM58 °FClear.No wind78%29.91 "Hg10 mi
3:53 AM59 °FClear.No wind78%29.91 "Hg10 mi
Weather by CustomWeather, © 2014

See weather overviewHow to use our weather pages